Home   Weather   Neuwied   Past weeks
Flag for Germany

Past Weather in Neuwied, Rhineland-Palatinate, Germany — Yesterday and Last 2 Weeks

Now
50 °F

Cool.


Feels Like: 46 °F
Forecast: 70 / 50 °F
Wind: 10 mph from East

Location: Buechel

Current Time: Sep 21, 2019 at 2:56:54 am

Latest Report: Sep 21, 2019 at 2:20 am


Visibility: N/A

Pressure: 30.21 "Hg

Humidity: 54%

Dew Point: 34 °F

Location of NeuwiedLocation

Past Weather in Neuwied — Graph

°F

Neuwied Temperature Yesterday

Maximum temperature yesterday: 61 °F (at 3:20 pm)
Minimum temperature yesterday: 43 °F (at 3:20 am)
Average temperature yesterday: 51 °F

High & Low Weather Summary for the Past Weeks

 TemperatureHumidityPressure
High75 °F (Sep 15, 4:20 pm)100% (Sep 6, 5:20 am)30.54 "Hg (Sep 6, 5:20 am)
Low43 °F (Sep 6, 5:00 am)34% (Sep 15, 4:20 pm)29.95 "Hg (Sep 9, 5:20 pm)
Average55 °F72%30.24 "Hg
* Reported Sep 6 1:20 am — Sep 21 1:20 am, Neuwied. Weather by CustomWeather, © 2019

Note: Actual official high and low records may vary slightly from our data, if they occured in-between our weather recording intervals... More about our weather records

Advertising

Neuwied Weather History for the Previous 24 Hours

Scroll right to see more
 ConditionsComfort  
Time TempWeatherWind HumidityBarometerVisibility
1:20 am
Sat, Sep 21
50 °FCool.10 mph54%30.21 "HgN/A
12:20 am50 °FCool.8 mph58%30.24 "HgN/A
11:20 pm
Fri, Sep 20
50 °FCool.8 mph58%30.24 "HgN/A
10:20 pm52 °FCool.8 mph54%30.27 "HgN/A
9:20 pm52 °FCool.7 mph50%30.27 "HgN/A
8:20 pm54 °FCool.7 mph51%30.27 "HgN/A
7:20 pm57 °FRefreshingly cool.8 mph41%30.27 "HgN/A
6:20 pm61 °FRefreshingly cool.12 mph34%30.30 "HgN/A
5:20 pm61 °FRefreshingly cool.12 mph36%30.30 "HgN/A
4:20 pm61 °FRefreshingly cool.12 mph34%30.30 "HgN/A
3:20 pm61 °FRefreshingly cool.10 mph34%30.33 "HgN/A
2:20 pm59 °FRefreshingly cool.9 mph36%30.36 "HgN/A
1:20 pm57 °FRefreshingly cool.12 mph44%30.36 "HgN/A
12:54 pm55 °FPartly sunny.9 mph47%30.36 "HgN/A
12:20 pm55 °FPartly sunny.10 mph47%30.39 "HgN/A
11:52 am54 °FPartly sunny.9 mph51%30.39 "HgN/A
11:20 am54 °FPartly sunny.10 mph51%30.39 "HgN/A
10:20 am50 °FPartly sunny.10 mph58%30.39 "HgN/A
9:20 am48 °FPassing clouds.8 mph62%30.39 "HgN/A
8:20 am45 °FPassing clouds.7 mph71%30.36 "HgN/A
7:20 am43 °FPassing clouds.7 mph71%30.36 "HgN/A
6:20 am43 °FPassing clouds.8 mph71%30.36 "HgN/A
5:20 am43 °FPassing clouds.7 mph71%30.36 "HgN/A
4:20 am43 °FQuite cool.7 mph71%30.39 "Hg4 mi
3:20 am43 °FQuite cool.7 mph71%30.39 "Hg4 mi
2:20 am45 °FQuite cool.8 mph66%30.39 "Hg4 mi
Weather by CustomWeather, © 2019

See weather overview